星链-37085(STARLINK-37085)

导读

STARLINK-37085(NORAD编号68252)是SpaceX星链(Starlink)星座中的一颗低轨通信卫星,属于星链网络的组网卫星之一。星链星座是全球规模最大的低轨卫星互联网星座,截至2026年在轨活跃卫星已突破万颗。该卫星工作于近地轨道,配备相控阵天线,通过星间激光链路实现低延迟、高带宽的数据传输,为全球提供卫星互联网接入服务。遵循星链星座设计,其服役周期约4-5年,退役后将受控再入大气层,坠入无人海域,最大限度减少空间碎片风险。

基本信息
目录编号:
68252
目录名称:
STARLINK-37085
国际标识:
2026-054W
轨道中心:
EARTH
卫星名称:
星链-37085
卫星全名:
星链-37085(STARLINK-37085)
卫星状态:
在轨 (已飞行133 天)
发射日期:
2026-03-17 UTC
国别 :
美国 (US)
星等 :
--
轨道信息
数据来源 国际轨道数据 AOE轨道数据
星历时间 2026-07-27T02:32:29+0800
1天前
查看轨道信息
2026-07-22T02:00:00+0800
6天前
查看轨道信息
半长轴 6840.775km 6840.893km
偏心率 0.0001187 0.0001
轨道倾角 53.160° 53.159°
近地点辐角 72.536° 86.975°
升交点赤经 2.486° 25.966°
平近点角 287.578° 233.974°
近地点 461.826km 462.071km
远地点 463.45km 463.441km
周期 93.846分钟 93.849分钟
每日圈数 15.344221 15.343825
详细信息
固有亮度:
5
最大亮度:
2.5
卫星平台:
Starlink V1.0
覆盖范围:
全球
运营商:
太空探索技术公司
运营商所在国:
美国
制造商(研发单位):
太空探索技术公司
制造商所在国:
美国
使用方式:
暂无
卫星简介
Starlink 计划是 SpaceX 推出的全球卫星互联网项目,通过发射低轨道卫星,为全球尤其是偏远地区提供高速、低延迟的互联网服务。自 2019 年起,Starlink 已部署数千颗卫星,旨在缩小全球数字鸿沟,推动互联网普及。该项目还为军事、航空等行业提供通信支持,带来广泛经济效益。
2D轨道图
3D轨道图
轨道高度分析图
轨道倾角分析图
轨道综合分析图
查看轨道综合分析图